Back to catalog

STARLINK-4318

AliveCommunicationsSSO
NORAD 53086·PAYLOAD·🇺🇸 United States

Launched Jul 11, 2022 from Vandenberg Space Force Base

Loading…

Next Passes (next 24 hours)

TLE

FreshSource: CelesTrak SupGP

Epoch: Sep 14, 2026, 13:47 UTC

1 53086C 22077AV  26257.57479167 -.00051630  00000+0 -16028-2 0  2570
2 53086  97.2853  72.3954 0001454  86.3564 243.7951 15.33464669    13

Track STARLINK-4318 in real time with AllMySat

Download on the App Store